Content
SEND FEEDBACK

Daily
Averages
Monthly
Summary
Germany

BENKENDORF, GERMANY


Home > Europe > Germany
Elevation: 364 feet     Latitude: 51 30N     Longitude: 011 54E

WEATHER
 
SELECT A DAY
Number of Records: 114,427;   Date Range: 3/20/99 - 7/24/14
 
SHARE

PRINT THIS DATA

[ ← Previous Day ]
WEATHER ALMANAC - FEBRUARY 13, 2013
[ Next Day → ]
[ °C ]   °F
Weather ElementAverageHighLow
Temperature27 °F30.2 °F (1:20 pm)24 °F (11:00 pm)
Dewpoint25.6 °F28.4 °F (3:20 am)23 °F (11:00 pm)
Humidity93.4 %100 % (3:20 am)80 % (2:00 pm)
Barometer30.21 in30.39 in (11:00 pm)30.01 in (12:20 am)
Wind Speed6.5 mph10.4 mph (5:50 pm)
Weather ElementAverage
Visibility2.3 mi
Wind DirectionWNW (288.5 °)

Weather ElementTotal
Precipitation---
Heating Degree Days37.9 (Base 65)
Averaged from 66 records on February 13, 2013
WEATHER CONDITIONS BREAKOUT
WIND DIRECTION BREAKOUT
WEATHER BY HOUR - FEBRUARY 13, 2013
[ °C ]   °F
Local TimeTemperatureDewpointHumidityBarometerVisibilityWind DirectionWind SpeedGust SpeedPrecipitationEventsConditions
12:20 AM28.4 °F26.6 °F93 %30.01 in3.1 miNorth (360°)9.2 mphSnowLight Snow
12:50 AM28.4 °F26.6 °F93 %30.01 in2.5 miNorth (10°)8.1 mphSnowLight Snow
1:00 AM28.0 °F26.0 °F91 %30.06 in2.0 miNorth6.7 mphSnowLight Snow
1:20 AM28.4 °F26.6 °F93 %30.01 in2.2 miNorth (360°)8.1 mphSnowLight Snow
1:50 AM28.4 °F26.6 °F93 %30.01 in1.9 miNorth (350°)8.1 mphSnowSnow
2:00 AM28.0 °F26.0 °F91 %30.07 in2.0 miNorth4.5 mphSnowSnow
2:20 AM28.4 °F26.6 °F93 %30.04 in1.9 miNorth (350°)6.9 mphSnowSnow
2:50 AM28.4 °F26.6 °F93 %30.04 in2.2 miNorth (360°)6.9 mphSnowLight Snow
3:00 AM28.0 °F26.0 °F91 %30.08 in2.0 miNorth6.7 mphSnowLight Snow
3:20 AM28.4 °F28.4 °F100 %30.04 in2.2 miNNW (340°)6.9 mphSnowLight Snow
3:50 AM26.6 °F26.6 °F100 %30.04 in2.8 miNNW (340°)6.9 mphSnowLight Snow
4:20 AM26.6 °F26.6 °F100 %30.06 in2.5 miNNW (330°)5.8 mphSnowLight Snow
4:50 AM26.6 °F24.8 °F93 %30.06 in2.5 miNNW (330°)5.8 mphSnowLight Snow
5:00 AM26.0 °F25.0 °F94 %30.12 in2.0 miNNW (330°)4.5 mphSnowLight Snow
5:20 AM26.6 °F26.6 °F100 %30.06 in2.5 miNNW (330°)5.8 mphSnowLight Snow
5:50 AM26.6 °F26.6 °F100 %30.09 in2.8 miNNW (340°)8.1 mphSnowLight Snow
6:00 AM26.0 °F25.0 °F96 %30.14 in3.0 miNNW (330°)6.7 mphSnowLight Snow
6:20 AM26.6 °F26.6 °F100 %30.09 in3.1 miNNW (340°)8.1 mphSnowLight Snow
6:50 AM26.6 °F26.6 °F100 %30.09 in3.1 miNNW (340°)8.1 mphSnowLight Snow
7:00 AM26.0 °F25.0 °F95 %30.15 in3.0 miNorth (350°)6.7 mphSnowLight Snow
7:20 AM26.6 °F24.8 °F93 %30.12 in2.5 miNNW (340°)8.1 mphSnowLight Snow
7:50 AM26.6 °F24.8 °F93 %30.12 in2.2 miNNW (340°)8.1 mphSnowLight Snow
8:00 AM26.0 °F24.0 °F90 %30.18 in2.0 miNNW (340°)6.7 mphSnowLight Snow
8:20 AM24.8 °F24.8 °F100 %30.15 in2.5 miNNW (340°)6.9 mphSnowLight Snow
8:50 AM26.6 °F24.8 °F93 %30.15 in2.5 miNNW (330°)6.9 mphSnowLight Snow
9:20 AM26.6 °F24.8 °F93 %30.15 in2.8 miNNW (330°)6.9 mphSnowLight Snow
9:50 AM26.6 °F24.8 °F93 %30.18 in2.8 miNNW (330°)6.9 mphSnowLight Snow
10:20 AM26.6 °F24.8 °F93 %30.18 in2.8 miNNW (330°)6.9 mphSnowLight Snow
10:50 AM26.6 °F24.8 °F93 %30.21 in2.5 miNNW (330°)5.8 mphMostly Cloudy
11:00 AM27.0 °F25.0 °F88 %30.25 in2.0 miNNW (330°)6.7 mphSnowLight Snow
11:20 AM28.4 °F26.6 °F93 %30.21 in2.5 miNNW (330°)4.6 mphMostly Cloudy
11:50 AM28.4 °F24.8 °F86 %30.21 in2.5 miNW (320°)6.9 mphMostly Cloudy
12:00 PM28.0 °F25.0 °F84 %30.27 in2.0 miNW (320°)4.5 mphSnowLight Snow
12:20 PM28.4 °F26.6 °F93 %30.21 in2.5 miNNW (330°)3.5 mphMostly Cloudy
12:50 PM28.4 °F26.6 °F93 %30.24 in2.8 miNW (310°)4.6 mphMostly Cloudy
1:00 PM29.0 °F26.0 °F82 %30.27 in3.0 miWNW (300°)4.5 mphMist
1:20 PM30.2 °F26.6 °F86 %30.24 in2.8 miWNW (300°)6.9 mphMostly Cloudy
1:50 PM30.2 °F26.6 °F86 %30.24 in2.8 miNW (310°)6.9 mphMostly Cloudy
2:00 PM30.0 °F26.0 °F80 %30.27 in2.0 miWNW (300°)6.7 mphMist
2:20 PM30.2 °F26.6 °F86 %30.24 in2.8 miNW (320°)8.1 mphMostly Cloudy
2:50 PM30.2 °F26.6 °F86 %30.24 in2.8 miNW (310°)8.1 mphMostly Cloudy
3:00 PM30.0 °F27.0 °F82 %30.29 in3.0 miNW (310°)8.9 mphMist
3:20 PM30.2 °F26.6 °F86 %30.27 in2.8 miNNW (330°)6.9 mphMostly Cloudy
3:50 PM30.2 °F26.6 °F86 %30.27 in2.8 miNW (320°)8.1 mphMostly Cloudy
4:20 PM30.2 °F26.6 °F86 %30.27 in2.8 miNNW (330°)8.1 mphMostly Cloudy
4:50 PM28.4 °F26.6 °F93 %30.27 in2.5 miNNW (330°)9.2 mphMostly Cloudy
5:00 PM28.0 °F26.0 °F87 %30.32 in2.0 miNNW (330°)6.7 mphMist
5:20 PM26.6 °F24.8 °F93 %30.30 in2.5 miNNW (330°)9.2 mphMostly Cloudy
5:50 PM26.6 °F24.8 °F93 %30.30 in2.2 miNorth (350°)10.4 mphMostly Cloudy
6:00 PM26.0 °F24.0 °F91 %30.35 in2.0 miNorth (350°)8.9 mphMist
6:20 PM24.8 °F24.8 °F100 %30.30 in2.2 miNorth (350°)10.4 mphMostly Cloudy
6:50 PM24.8 °F24.8 °F100 %30.33 in2.2 miNNW (340°)10.4 mphMostly Cloudy
7:00 PM25.0 °F24.0 °F93 %30.37 in2.0 miNorth (350°)8.9 mphMist
7:20 PM24.8 °F24.8 °F100 %30.33 in1.9 miNorth (360°)8.1 mphOvercast
7:50 PM24.8 °F24.8 °F100 %30.33 in2.5 miNNW (340°)6.9 mphOvercast
8:00 PM25.0 °F24.0 °F94 %30.38 in2.0 miNNW (340°)4.5 mphMist
8:20 PM24.8 °F24.8 °F100 %30.33 in2.5 miNorth (360°)4.6 mphOvercast
8:50 PM24.8 °F24.8 °F100 %30.33 in2.5 miNorth (10°)3.5 mphOvercast
9:00 PM25.0 °F24.0 °F92 %30.38 in2.0 miNorth4.5 mphMist
9:20 PM24.8 °F24.8 °F100 %30.33 in2.2 miNorth (10°)3.5 mphOvercast
9:50 PM24.8 °F24.8 °F100 %30.33 in1.2 miWNW (300°)2.3 mphOvercast
10:20 PM24.8 °F24.8 °F100 %30.33 in1.4 miWest (280°)3.5 mphOvercast
10:50 PM24.8 °F24.8 °F100 %30.33 in1.4 miNorth (360°)2.3 mphOvercast
11:00 PM24.0 °F23.0 °F95 %30.39 in1.0 miSSW (200°)2.2 mphMist
11:20 PM24.8 °F24.8 °F100 %30.33 in1.2 miSouth (180°)3.5 mphOvercast
11:50 PM24.8 °F24.8 °F100 %30.33 in1.2 miVariable2.3 mphOvercast
Hourly data recorded from EDDP, located miles away from Benkendorf, Germany







STORIES FROM OUR PARTNERS